Airfield :
LOGIN :

Register | Disclaimer

   EN    FR    IT 

 










Legend :    VFR   Marginal VFR   IFR   Intensive IFR   Very Intensive IFR
Visi :
Ceiling :
>= 8 km
>= 3000ft
5 to 8 km
1000 to 3000 ft
1500m to 5 km
500 to 1000 ft
800 to 1500m
200 to 500 ft
< 800m
< 200 ft
Symbols :   Thunderstorms  Fog  Heavy snow  Heavy precipitations  Wind > 20 kt
SIGMETs :     Misc.  Thunderstorms  Icing  Turbulence  Mountain Waves  Volcanic Ashes







- Airport Elevation : 238 ft
- IATA code : FAB
- Download approach charts


EGLF - Farnborough

CURRENT METAR :
  • 181950Z 24005KT 9999 -RADZ SCT019 BKN027 06/06 Q1021

EXPIRED METARs :
  • 181920Z VRB02KT 9999 -RADZ SCT012 BKN026 07/07 Q1021
  • 181850Z VRB03KT 5000 RADZ BR SCT011 BKN018 07/07 Q1021
  • 181820Z 36004KT 320V020 4700 RADZ BR BKN006 BKN016 07/07 Q1021

Expired Forecast.
ATIS : +44 09063 800 400 (*282)
No reported NOTAMs for that airfield.



MET'MAP, your aeronautical weather chart ! - Copyright ORBIFLY December 2007 - Disclaimer

ORBIFLY MET'MAP TEAM :

Programming & Development : Alexandra Zaïnal
Concept & Development : Baudouin d'Aumeries
Co-Development & Prog : Marc-Olivier Méhu
Technical & hardware support : Manuel Goepfert

Contact : metmap@orbifly.com




SOURCES & CREDITS :

   NOAA